Date String (YYYY-MM-DD hh:mm:ss) UTC,Instrument flags,absolute air pressure of the measurement (hPa),sample flow rate (lpm),inlet stack bypass flow (lpm),air temperature of the measurement (°C),ambient temperature measured by the external sensor (°C),aerosol sample conditioner tube jacket temperature (°C),OPC LED temperature (°C),internal box temperature (°C),relative humidity of the measurement (%),span deviation,mass concentration of particles derived from Lorenz-Mie calculation of OPC scattering (μg/m³),mass concentration of particles derived from Lorenz-Mie calculation of OPC scattering (μg/m³),mass concentration of particles derived from Lorenz-Mie calculation of OPC scattering (μg/m³)
DateTimeUTC,F1_M11,P_M11,Q1_M11,Q2_M11,T1_M11,T2_M11,T3_M11,T4_M11,T5_M11,U1_M11,ZSPAN_M11,X2_M11,X0_M11,X1_M11
2023-07-26 04:00:00,SystemResetWarning,0835.1,5.00,000.00,028.7,026.9,000.0,037.0,030.4,25.2,0000.0,0003.91,0010.80,0002.78
2023-07-26 04:01:00,SystemResetWarning,0834.7,4.99,000.00,028.7,027.2,000.0,037.1,030.5,25.0,0000.0,0003.93,0010.37,0002.81
2023-07-26 04:02:00,SystemResetWarning,0834.8,5.00,000.00,028.8,027.5,000.0,037.1,030.5,25.2,0000.0,0003.94,0010.39,0002.83
2023-07-26 04:03:00,SystemResetWarning,0834.9,5.00,000.00,028.8,027.7,000.0,037.1,030.6,24.8,0000.0,0004.02,0010.83,0002.84
2023-07-26 04:04:00,SystemResetWarning,0835.0,5.00,000.00,028.9,027.8,000.0,037.2,030.7,24.6,0000.0,0004.06,0011.21,0002.85
2023-07-26 04:05:00,SystemResetWarning,0835.0,4.99,000.00,028.9,026.9,000.0,037.1,030.6,24.6,0000.0,0004.08,0011.50,0002.85
2023-07-26 04:06:00,SystemResetWarning,0834.7,5.00,000.00,028.8,025.1,000.0,037.0,030.3,24.3,0000.0,0004.10,0012.04,0002.86
2023-07-26 04:07:00,SystemResetWarning,0834.7,5.00,000.00,028.7,024.6,000.0,036.9,030.1,24.4,0000.0,0004.08,0011.40,0002.87
2023-07-26 04:08:00,SystemResetWarning,0834.7,5.00,000.00,028.7,024.9,000.0,036.9,030.0,24.5,0000.0,0004.07,0011.60,0002.88
2023-07-26 04:09:00,SystemResetWarning,0834.7,5.02,000.00,028.6,025.4,000.0,037.0,030.0,24.6,0000.0,0004.11,0011.50,0002.89
2023-07-26 04:10:00,SystemResetWarning,0834.7,5.00,000.00,028.6,025.8,000.0,037.0,030.1,24.6,0000.0,0004.13,0011.67,0002.93
2023-07-26 04:11:00,SystemResetWarning,0834.8,5.00,000.00,028.6,026.3,000.0,037.0,030.2,24.6,0000.0,0004.14,0011.98,0002.95
2023-07-26 04:12:00,SystemResetWarning,0835.0,5.00,000.00,028.7,026.7,000.0,037.0,030.3,24.6,0000.0,0004.14,0012.02,0002.99
2023-07-26 04:13:00,SystemResetWarning,0835.3,5.01,000.00,028.7,027.0,000.0,037.1,030.4,24.7,0000.0,0004.19,0012.40,0003.00
2023-07-26 04:14:00,SystemResetWarning,0835.4,5.00,000.00,028.7,027.3,000.0,037.1,030.5,24.7,0000.0,0004.18,0012.27,0003.01
2023-07-26 04:15:00,SystemResetWarning,0835.3,4.99,000.00,028.8,027.5,000.0,037.1,030.6,24.6,0000.0,0004.13,0011.68,0003.01
2023-07-26 04:16:00,SystemResetWarning,0835.1,5.00,000.00,028.8,027.7,000.0,037.1,030.6,25.0,0000.0,0004.10,0011.96,0003.03
2023-07-26 04:17:00,SystemResetWarning,0834.7,5.00,000.00,028.9,027.8,000.0,037.2,030.7,24.8,0000.0,0004.12,0011.70,0003.03
2023-07-26 04:18:00,SystemResetWarning,0834.7,4.99,000.00,028.9,026.5,000.0,037.1,030.5,24.8,0000.0,0004.11,0011.67,0003.02
2023-07-26 04:19:00,SystemResetWarning,0834.7,5.02,000.00,028.9,025.5,000.0,037.0,030.4,24.6,0000.0,0004.14,0012.31,0003.04
2023-07-26 04:20:00,SystemResetWarning,0834.9,5.00,000.00,028.8,025.7,000.0,037.0,030.3,24.6,0000.0,0004.14,0012.67,0003.05
2023-07-26 04:21:00,SystemResetWarning,0835.1,4.99,000.00,028.8,026.0,000.0,037.0,030.2,24.9,0000.0,0004.12,0012.57,0003.03
2023-07-26 04:22:00,SystemResetWarning,0834.9,5.00,000.00,028.8,026.3,000.0,037.1,030.3,25.0,0000.0,0004.11,0012.39,0003.01
2023-07-26 04:23:00,SystemResetWarning,0834.7,5.02,000.00,028.8,026.7,000.0,037.1,030.4,24.9,0000.0,0004.09,0012.13,0002.98
2023-07-26 04:24:00,SystemResetWarning,0834.8,5.00,000.00,028.8,027.0,000.0,037.2,030.5,24.7,0000.0,0004.06,0011.91,0002.96
2023-07-26 04:25:00,SystemResetWarning,0834.7,5.00,000.00,028.9,027.3,000.0,037.2,030.6,24.6,0000.0,0004.02,0012.13,0002.97
2023-07-26 04:26:00,SystemResetWarning,0834.7,4.99,000.00,028.9,027.6,000.0,037.2,030.6,24.5,0000.0,0004.09,0012.42,0002.98
2023-07-26 04:27:00,SystemResetWarning,0834.7,4.98,000.00,028.9,027.3,000.0,037.2,030.7,24.6,0000.0,0004.12,0012.35,0002.98
2023-07-26 04:28:00,SystemResetWarning,0834.7,5.00,000.00,028.9,025.6,000.0,037.1,030.4,24.8,0000.0,0004.14,0011.96,0002.98
2023-07-26 04:29:00,SystemResetWarning,0834.9,5.00,000.00,028.8,024.5,000.0,037.0,030.2,25.1,0000.0,0004.15,0012.05,0002.98
2023-07-26 04:30:00,SystemResetWarning,0834.8,5.02,000.00,028.7,024.6,000.0,036.9,030.0,25.3,0000.0,0004.15,0012.14,0003.00
2023-07-26 04:31:00,SystemResetWarning,0835.1,5.01,000.00,028.7,025.0,000.0,037.0,029.9,25.4,0000.0,0004.17,0012.14,0002.99
2023-07-26 04:32:00,SystemResetWarning,0835.0,5.00,000.00,028.6,025.5,000.0,037.0,030.1,25.2,0000.0,0004.17,0012.26,0002.99
2023-07-26 04:33:00,SystemResetWarning,0834.7,5.00,000.00,028.6,026.0,000.0,037.0,030.2,24.9,0000.0,0004.16,0012.40,0002.99
2023-07-26 04:34:00,SystemResetWarning,0834.6,4.99,000.00,028.7,026.4,000.0,037.1,030.2,24.8,0000.0,0004.22,0012.51,0003.01
2023-07-26 04:35:00,SystemResetWarning,0834.6,5.00,000.00,028.7,026.8,000.0,037.1,030.3,24.7,0000.0,0004.25,0012.81,0003.02
2023-07-26 04:36:00,SystemResetWarning,0834.6,5.00,000.00,028.7,027.1,000.0,037.1,030.4,24.6,0000.0,0004.25,0012.22,0003.02
2023-07-26 04:37:00,SystemResetWarning,0834.8,5.00,000.00,028.8,027.4,000.0,037.1,030.5,24.4,0000.0,0004.24,0012.25,0003.02
2023-07-26 04:38:00,SystemResetWarning,0834.6,5.00,000.00,028.8,027.6,000.0,037.2,030.6,24.4,0000.0,0004.24,0012.10,0003.04
2023-07-26 04:39:00,SystemResetWarning,0834.8,4.99,000.00,028.9,027.8,000.0,037.2,030.6,24.4,0000.0,0004.25,0012.59,0003.06
2023-07-26 04:40:00,SystemResetWarning,0834.9,4.99,000.00,028.9,027.1,000.0,037.1,030.6,24.4,0000.0,0004.28,0012.91,0003.09
2023-07-26 04:41:00,SystemResetWarning,0834.6,5.01,000.00,028.9,025.6,000.0,037.0,030.4,24.3,0000.0,0004.31,0012.61,0003.10
2023-07-26 04:42:00,SystemResetWarning,0834.5,5.01,000.00,028.8,025.4,000.0,037.0,030.3,24.4,0000.0,0004.28,0011.62,0003.10
2023-07-26 04:43:00,SystemResetWarning,0834.7,5.00,000.00,028.8,025.7,000.0,037.0,030.2,24.5,0000.0,0004.29,0011.61,0003.11
2023-07-26 04:44:00,SystemResetWarning,0834.6,5.00,000.00,028.7,026.1,000.0,037.1,030.2,24.5,0000.0,0004.26,0011.49,0003.11
2023-07-26 04:45:00,SystemResetWarning,0834.5,5.01,000.00,028.8,026.5,000.0,037.1,030.3,24.3,0000.0,0004.22,0011.07,0003.10
2023-07-26 04:46:00,SystemResetWarning,0834.8,5.00,000.00,028.8,026.8,000.0,037.1,030.4,24.3,0000.0,0004.16,0010.60,0003.09
2023-07-26 04:47:00,SystemResetWarning,0834.6,5.00,000.00,028.8,027.1,000.0,037.2,030.5,24.4,0000.0,0004.17,0010.58,0003.06
2023-07-26 04:48:00,SystemResetWarning,0834.5,4.99,000.00,028.9,027.4,000.0,037.2,030.6,24.3,0000.0,0004.14,0010.61,0003.04
2023-07-26 04:49:00,SystemResetWarning,0834.8,4.99,000.00,028.9,027.6,000.0,037.2,030.7,23.9,0000.0,0004.07,0010.38,0003.01
2023-07-26 04:50:00,SystemResetWarning,0835.1,5.00,000.00,029.0,027.7,000.0,037.2,030.7,24.0,0000.0,0004.03,0009.87,0002.98
2023-07-26 04:51:00,SystemResetWarning,0835.0,5.00,000.00,029.0,026.5,000.0,037.2,030.6,24.1,0000.0,0003.99,0009.46,0002.93
2023-07-26 04:52:00,SystemResetWarning,0834.5,5.00,000.00,028.9,024.8,000.0,037.0,030.3,24.1,0000.0,0003.98,0009.14,0002.92
2023-07-26 04:53:00,SystemResetWarning,0834.5,5.01,000.00,028.8,024.5,000.0,037.0,030.1,24.2,0000.0,0004.01,0009.91,0002.90
2023-07-26 04:54:00,SystemResetWarning,0834.5,5.00,000.00,028.7,024.8,000.0,037.0,029.9,24.6,0000.0,0003.98,0009.64,0002.88
2023-07-26 04:55:00,SystemResetWarning,0834.5,5.00,000.00,028.6,025.3,000.0,037.0,030.0,24.6,0000.0,0003.97,0009.28,0002.88
2023-07-26 04:56:00,SystemResetWarning,0834.5,5.00,000.00,028.6,025.8,000.0,037.1,030.1,24.5,0000.0,0003.97,0009.37,0002.88
2023-07-26 04:57:00,SystemResetWarning,0834.7,4.99,000.00,028.7,026.2,000.0,037.1,030.2,24.5,0000.0,0003.97,0009.52,0002.89
2023-07-26 04:58:00,SystemResetWarning,0835.0,4.99,000.00,028.7,026.6,000.0,037.1,030.3,24.4,0000.0,0003.95,0010.56,0002.91
2023-07-26 04:59:00,SystemResetWarning,0835.0,5.00,000.00,028.7,027.0,000.0,037.1,030.4,24.4,0000.0,0004.00,0010.66,0002.93
